CW4691 Weather Reports


Display with metric or nautical units.
time (UTC)temp
F
wind
direction
speed
MPH
gust
MPH
rain 1hr
in
rain 24hr
in
rain mn
in
humidity
%
barometer
mb
20260506013107 60 360 14.0 18.0 0.00 0.02 0.02 34 1006.8
20260506011525 60 360 14.0 21.0 0.00 0.02 0.02 34 1006.9
20260506010007 60 296 14.0 24.0 0.00 0.02 0.02 33 1006.6
20260506004508 61 360 17.0 30.0 0.00 0.02 0.02 31 1006.5
20260506003055 62 274 19.0 32.0 0.00 0.02 0.02 29 1006.5
20260506001539 62 265 18.0 30.0 0.00 0.02 0.02 31 1006.4
20260506000014 62 360 20.0 32.0 0.00 0.02 0.02 31 1006.4
20260505234553 63 266 18.0 28.0 0.00 0.02 0.02 33 1006.3
20260505233012 64 265 18.0 28.0 0.00 0.02 0.02 35 1006.3
20260505231608 65 289 25.0 32.0 0.00 0.02 0.02 33 1006.5
20260505230055 62 360 19.0 28.0 0.00 0.02 0.02 39 1006.6
20260505224527 63 360 21.0 32.0 0.00 0.02 0.02 39 1006.6
20260505223108 62 262 16.0 26.0 0.00 0.02 0.02 45 1006.7
20260505221604 62 257 15.0 27.0 0.00 0.02 0.02 44 1006.8
20260505220052 62 360 13.0 19.0 0.00 0.02 0.02 48 1007.4
20260505214601 61 360 13.0 19.0 0.00 0.02 0.02 53 1007.7
20260505213011 57 360 8.0 13.0 0.00 0.02 0.02 68 1008.2
20260505211608 55 265 10.0 15.0 0.00 0.02 0.02 67 1007.9
20260505210044 57 360 10.0 23.0 0.00 0.02 0.02 68 1007.8
20260505204527 60 331 13.0 22.0 0.00 0.02 0.02 49 1008.1
20260505203011 61 281 13.0 28.0 0.00 0.02 0.02 48 1008.1
20260505201537 62 360 16.0 24.0 0.00 0.02 0.02 46 1008.3
20260505200021 60 360 18.0 32.0 0.00 0.02 0.02 48 1008.6
20260505194605 59 360 14.0 25.0 0.00 0.02 0.02 52 1008.7
20260505193036 59 360 16.0 23.0 0.01 0.02 0.02 55 1008.6
20260505191612 58 360 16.0 23.0 0.01 0.02 0.02 58 1008.6
20260505190024 57 360 12.0 18.0 0.01 0.02 0.02 66 1009.1
20260505184552 56 360 11.0 22.0 0.01 0.02 0.02 65 1009.1
20260505183050 56 271 15.0 24.0 0.00 0.01 0.01 65 1009.0
20260505181506 55 323 10.0 21.0 0.00 0.01 0.01 68 1009.0
20260505180053 54 360 14.0 25.0 0.00 0.01 0.01 70 1009.0
20260505174523 54 360 12.0 19.0 0.00 0.01 0.01 71 1008.9
20260505173005 53 360 10.0 16.0 0.00 0.01 0.01 75 1008.8
20260505171553 53 360 13.0 19.0 0.00 0.01 0.01 76 1008.7
20260505170034 52 360 11.0 16.0 0.00 0.01 0.01 79 1008.6
20260505164508 51 360 7.0 11.0 0.00 0.01 0.01 81 1008.4
20260505163010 50 360 6.0 11.0 0.00 0.01 0.01 84 1008.5
20260505161603 49 360 8.0 12.0 0.00 0.01 0.01 84 1008.1
20260505153109 49 333 6.0 10.0 0.00 0.01 0.01 85 1008.0
20260505151538 47 360 5.0 8.0 0.00 0.01 0.01 85 1007.9
20260505140114 46 34 5.0 8.0 0.00 0.01 0.01 85 1007.1
20260505124548 45 47 2.0 8.0 0.01 0.01 0.01 84 1007.8
20260505123051 45 325 14.0 23.0 0.00 0.00 0.00 82 1008.2
20260505121544 45 360 14.0 30.0 0.00 0.00 0.00 81 1007.6
20260505120047 47 360 19.0 30.0 0.00 0.00 0.00 73 1007.4
20260505114544 49 360 21.0 33.0 0.00 0.00 0.00 69 1007.1
20260505113032 50 308 21.0 32.0 0.00 0.00 0.00 66 1007.3
20260505111529 50 360 11.0 19.0 0.00 0.00 0.00 73 1007.1
20260505101538 50 360 5.0 17.0 0.00 0.00 0.00 74 1007.2
20260505100021 50 327 9.0 17.0 0.00 0.00 0.00 73 1007.7
20260505094531 51 360 9.0 18.0 0.00 0.00 0.00 72 1007.2
20260505093018 50 360 7.0 14.0 0.00 0.00 0.00 73 1007.2
20260505091515 50 333 6.0 11.0 0.00 0.00 0.00 73 1007.2
20260505090019 49 360 5.0 8.0 0.00 0.00 0.00 74 1007.1
20260505084513 50 355 6.0 10.0 0.00 0.00 0.00 74 1007.5
20260505083017 50 360 6.0 8.0 0.00 0.00 0.00 74 1007.7
20260505081510 50 355 6.0 10.0 0.00 0.00 0.00 73 1008.0
20260505080008 50 350 6.0 10.0 0.00 0.00 0.00 73 1008.2
20260505074504 50 348 4.0 6.0 0.00 0.00 0.00 71 1008.2
20260505073002 50 53 2.0 6.0 0.00 0.00 0.00 70 1008.2
20260505071506 50 50 1.0 5.0 0.00 0.00 0.00 69 1008.0
20260505070104 50 32 5.0 9.0 0.00 0.00 0.00 70 1008.2
20260505064557 51 23 5.0 8.0 0.00 0.00 0.00 68 1008.4
20260505063055 51 333 3.0 8.0 0.00 0.00 0.00 66 1008.0
20260505061554 52 9 5.0 9.0 0.00 0.00 0.00 65 1007.3
20260505060053 52 5 7.0 12.0 0.00 0.00 0.00 65 1007.9
20260505054551 52 16 8.0 14.0 0.00 0.00 0.00 64 1008.5
20260505053049 52 32 5.0 11.0 0.00 0.00 0.00 64 1008.8
20260505051559 52 24 8.0 14.0 0.00 0.00 0.00 63 1008.6
20260505041523 54 350 12.0 18.0 0.00 0.00 0.00 59 1008.7
20260505040016 54 5 12.0 19.0 0.00 0.00 0.00 56 1008.7
20260505034513 55 5 11.0 19.0 0.00 0.00 0.00 54 1008.6
20260505033014 56 346 14.0 23.0 0.00 0.00 0.00 51 1008.5
20260505031513 56 355 12.0 28.0 0.00 0.00 0.00 49 1008.2
20260505030011 57 360 15.0 24.0 0.00 0.00 0.00 46 1007.9
20260505024512 57 10 19.0 28.0 0.00 0.00 0.00 44 1007.8
20260505023017 60 20 17.0 24.0 0.00 0.00 0.00 37 1007.7
20260505021513 62 336 16.0 24.0 0.00 0.00 0.00 31 1007.4
20260505020007 63 360 12.0 23.0 0.00 0.00 0.00 29 1007.2
20260505014512 63 315 18.0 27.0 0.00 0.00 0.00 28 1007.1